THY6YQ LTBS-LTFM

Flight info

Callsign THY6YQ
Flight time N/A
Altitude 35000
Route RIVBU DCT BAGLU/N0478F390 DCT ATGIT UT58 KFK/N0478F400 UM855 SISPI
Aircraft B77W/H-SDE1E2E3FGHIJ2J3J4J5M1RWXY/LB1D1

Departure

Time 2026-04-29 16:55
Airport Dalaman International Airport (LTBS)

Arrival

Time N/A
Airport İstanbul Airport (LTFM)
Time Latitude Longitude Altitude Speed Heading
2026-04-29 16:37 36.71790 28.78906 32 ft 0 kts 285°
2026-04-29 16:47 36.71788 28.78916 31 ft 0 kts 290°
2026-04-29 16:49 36.71786 28.78923 30 ft 2 kts 293°
2026-04-29 16:49 36.71775 28.78949 31 ft 4 kts 319°
2026-04-29 16:49 36.71752 28.78964 31 ft 4 kts 358°
2026-04-29 16:50 36.71741 28.78964 29 ft 0 kts 16°
2026-04-29 16:51 36.71746 28.78966 29 ft 2 kts 17°
2026-04-29 16:51 36.71780 28.78982 31 ft 8 kts 18°
2026-04-29 16:51 36.71860 28.79011 32 ft 15 kts 24°
2026-04-29 16:51 36.71884 28.79125 32 ft 17 kts 101°
2026-04-29 16:52 36.71893 28.79219 32 ft 10 kts 44°
2026-04-29 16:52 36.71978 28.79261 32 ft 17 kts 16°
2026-04-29 16:52 36.72109 28.79308 32 ft 21 kts 15°
2026-04-29 16:52 36.72258 28.79359 32 ft 22 kts 15°
2026-04-29 16:53 36.72393 28.79405 31 ft 23 kts 15°
2026-04-29 16:53 36.72552 28.79460 31 ft 20 kts 15°
2026-04-29 16:53 36.72635 28.79503 32 ft 7 kts 59°
2026-04-29 16:53 36.72641 28.79547 32 ft 0 kts 94°
2026-04-29 16:54 36.72638 28.79569 32 ft 6 kts 100°
2026-04-29 16:54 36.72610 28.79637 33 ft 12 kts 128°
2026-04-29 16:54 36.72549 28.79667 33 ft 5 kts 192°
2026-04-29 16:55 36.72520 28.79659 33 ft 8 kts 193°
2026-04-29 16:55 36.72250 28.79568 30 ft 92 kts 195°
2026-04-29 16:55 36.71288 28.79231 108 ft 187 kts 196°
2026-04-29 16:55 36.69922 28.78753 1041 ft 207 kts 195°
2026-04-29 16:56 36.68545 28.78289 2316 ft 207 kts 194°
2026-04-29 16:56 36.67070 28.77796 2684 ft 235 kts 194°
2026-04-29 16:56 36.65426 28.77242 3245 ft 252 kts 195°
2026-04-29 16:56 36.63689 28.76652 3942 ft 265 kts 195°
2026-04-29 16:57 36.61879 28.76037 4799 ft 273 kts 195°
2026-04-29 16:57 36.60035 28.75410 5697 ft 276 kts 195°
2026-04-29 16:57 36.58158 28.74927 6552 ft 277 kts 180°
2026-04-29 16:57 36.56294 28.75525 7253 ft 282 kts 147°
2026-04-29 16:58 36.54938 28.77250 8149 ft 282 kts 119°
2026-04-29 16:58 36.54238 28.79514 8956 ft 282 kts 104°
2026-04-29 16:58 36.53727 28.81914 9659 ft 291 kts 105°
2026-04-29 16:58 36.53194 28.84354 10454 ft 297 kts 105°
2026-04-29 16:59 36.52631 28.86916 10797 ft 320 kts 105°
2026-04-29 16:59 36.52044 28.89699 10993 ft 343 kts 100°
2026-04-29 16:59 36.52041 28.92726 11125 ft 365 kts 75°
2026-04-29 16:59 36.53216 28.95550 11685 ft 376 kts 48°
2026-04-29 17:00 36.55316 28.97500 12445 ft 382 kts 22°
2026-04-29 17:00 36.57761 28.98391 13143 ft 382 kts 12°
2026-04-29 17:00 36.60383 28.99185 13824 ft 391 kts 13°
2026-04-29 17:00 36.63018 29.00061 14717 ft 393 kts 14°
2026-04-29 17:01 36.65632 29.00953 15637 ft 395 kts 14°
2026-04-29 17:01 36.68293 29.01867 16479 ft 399 kts 14°
2026-04-29 17:01 36.70981 29.02790 17277 ft 404 kts 14°
2026-04-29 17:01 36.73712 29.03729 18072 ft 409 kts 14°
2026-04-29 17:02 36.76470 29.04681 18795 ft 414 kts 14°
2026-04-29 17:02 36.79255 29.05640 19517 ft 417 kts 14°
2026-04-29 17:02 36.82065 29.06608 20246 ft 420 kts 14°
2026-04-29 17:02 36.84893 29.07584 20974 ft 424 kts 14°
2026-04-29 17:03 36.87753 29.08573 21652 ft 428 kts 14°
2026-04-29 17:03 36.90638 29.09571 22335 ft 432 kts 14°
2026-04-29 17:03 36.93549 29.10578 23017 ft 436 kts 14°
2026-04-29 17:03 36.96483 29.11613 23652 ft 440 kts 15°
2026-04-29 17:04 36.99365 29.12988 24130 ft 446 kts 22°
2026-04-29 17:04 37.02204 29.14621 24647 ft 450 kts 23°
2026-04-29 17:04 37.05059 29.16256 25181 ft 453 kts 22°
2026-04-29 17:04 37.07958 29.17863 25694 ft 456 kts 21°
2026-04-29 17:05 37.10887 29.19454 26184 ft 460 kts 21°
2026-04-29 17:05 37.13842 29.21046 26659 ft 464 kts 21°
2026-04-29 17:05 37.16820 29.22650 27172 ft 467 kts 21°
2026-04-29 17:05 37.19816 29.24266 27650 ft 471 kts 21°
2026-04-29 17:06 37.22835 29.25898 28104 ft 474 kts 21°
2026-04-29 17:06 37.25868 29.27542 28511 ft 477 kts 21°
2026-04-29 17:06 37.28889 29.29179 28916 ft 480 kts 21°
2026-04-29 17:06 37.31979 29.30801 29249 ft 480 kts 18°
2026-04-29 17:07 37.35242 29.31715 29327 ft 481 kts
2026-04-29 17:07 37.38576 29.31682 29627 ft 480 kts 356°
2026-04-29 17:07 37.41921 29.31562 30038 ft 481 kts 357°
2026-04-29 17:07 37.45270 29.31513 30498 ft 480 kts 358°
2026-04-29 17:08 37.48606 29.31518 30987 ft 478 kts 359°
2026-04-29 17:08 37.51927 29.31557 31427 ft 477 kts 359°
2026-04-29 17:08 37.55242 29.31614 31820 ft 476 kts 359°
2026-04-29 17:08 37.58557 29.31676 32226 ft 476 kts 359°
2026-04-29 17:09 37.61870 29.31738 32626 ft 475 kts 359°
2026-04-29 17:09 37.65132 29.31797 33025 ft 474 kts 359°
2026-04-29 17:09 37.68434 29.31854 33424 ft 474 kts 359°
2026-04-29 17:09 37.71723 29.31910 33833 ft 472 kts 359°
2026-04-29 17:10 37.75011 29.31965 34166 ft 472 kts 359°
2026-04-29 17:10 37.78296 29.32019 34453 ft 472 kts 359°
2026-04-29 17:10 37.81583 29.32073 34732 ft 472 kts 359°
2026-04-29 17:10 37.84871 29.32127 34918 ft 474 kts 359°
2026-04-29 17:11 37.91537 29.32237 35032 ft 482 kts 358°
2026-04-29 17:11 37.98298 29.32351 35050 ft 488 kts 359°
2026-04-29 17:12 38.05063 29.32490 35041 ft 491 kts
2026-04-29 17:12 38.10762 29.33404 35043 ft 495 kts 10°
2026-04-29 17:13 38.18583 29.35756 35050 ft 497 kts 11°
2026-04-29 17:13 38.25311 29.37749 35049 ft 496 kts 11°
2026-04-29 17:14 38.32047 29.39711 35048 ft 496 kts 10°
2026-04-29 17:14 38.38729 29.41646 35043 ft 495 kts 10°
2026-04-29 17:15 38.45432 29.43592 35046 ft 493 kts 10°
2026-04-29 17:15 38.52126 29.45541 35046 ft 493 kts 10°
2026-04-29 17:16 38.58818 29.47493 35050 ft 492 kts 10°
2026-04-29 17:16 38.65499 29.49447 35051 ft 492 kts 10°
2026-04-29 17:17 38.72178 29.51403 35055 ft 492 kts 10°
2026-04-29 17:17 38.78853 29.53361 35057 ft 493 kts 10°
2026-04-29 17:18 38.84429 29.55002 35061 ft 493 kts 10°
2026-04-29 17:18 38.99607 29.59478 35070 ft 495 kts 10°
2026-04-29 17:19 39.06277 29.61454 35059 ft 483 kts 10°
2026-04-29 17:19 39.12750 29.63375 35060 ft 475 kts 10°
2026-04-29 17:20 39.19144 29.65272 35062 ft 468 kts 10°
2026-04-29 17:20 39.25465 29.67151 35072 ft 465 kts 10°
2026-04-29 17:21 39.31773 29.69030 35078 ft 465 kts
2026-04-29 17:21 39.38032 29.70898 35021 ft 463 kts
2026-04-29 17:22 39.41169 29.71837 34795 ft 463 kts
2026-04-29 17:22 39.44315 29.72777 34549 ft 463 kts 10°
2026-04-29 17:22 39.47461 29.73720 34357 ft 462 kts 10°
2026-04-29 17:22 39.50567 29.74652 34199 ft 461 kts 10°
2026-04-29 17:23 39.53712 29.75597 34032 ft 459 kts 10°
2026-04-29 17:23 39.56819 29.76531 33853 ft 457 kts 10°
2026-04-29 17:23 39.59912 29.77461 33650 ft 456 kts 10°
2026-04-29 17:23 39.62963 29.78379 33455 ft 455 kts 10°
2026-04-29 17:24 39.66088 29.79320 33256 ft 454 kts 10°
2026-04-29 17:24 39.69162 29.80246 33059 ft 453 kts 10°
2026-04-29 17:24 39.72189 29.81159 32875 ft 452 kts 10°
2026-04-29 17:24 39.75285 29.82095 32682 ft 451 kts 10°
2026-04-29 17:25 39.78302 29.83007 32481 ft 450 kts 10°
2026-04-29 17:25 39.81343 29.83928 32244 ft 446 kts 10°
2026-04-29 17:25 39.84345 29.84839 31794 ft 441 kts 10°
2026-04-29 17:25 39.87319 29.85740 31336 ft 437 kts
2026-04-29 17:26 39.90298 29.86217 30800 ft 428 kts 352°
2026-04-29 17:26 39.93151 29.85392 30374 ft 416 kts 334°
2026-04-29 17:26 39.95669 29.83610 29923 ft 408 kts 324°
2026-04-29 17:26 39.98018 29.81562 29391 ft 405 kts 324°
2026-04-29 17:27 40.00355 29.79539 28834 ft 400 kts 324°
2026-04-29 17:27 40.02661 29.77553 28220 ft 394 kts 324°
2026-04-29 17:27 40.04930 29.75603 27638 ft 387 kts 324°
2026-04-29 17:27 40.07158 29.73694 27092 ft 380 kts 324°
2026-04-29 17:28 40.09355 29.71811 26547 ft 376 kts 324°
2026-04-29 17:28 40.11534 29.69947 26020 ft 373 kts 324°
2026-04-29 17:28 40.13692 29.68100 25501 ft 369 kts 324°
2026-04-29 17:28 40.15833 29.66268 24993 ft 367 kts 324°
2026-04-29 17:29 40.17934 29.64469 24506 ft 365 kts 324°
2026-04-29 17:29 40.20050 29.62656 24016 ft 362 kts 324°
2026-04-29 17:29 40.22156 29.60850 23503 ft 361 kts 324°
2026-04-29 17:29 40.23569 29.59639 23114 ft 359 kts 324°
2026-04-29 17:30 40.26311 29.57287 22365 ft 352 kts 324°
2026-04-29 17:30 40.28341 29.55544 21806 ft 346 kts 324°
2026-04-29 17:30 40.30338 29.53829 21261 ft 340 kts 324°
2026-04-29 17:30 40.31643 29.52707 20904 ft 337 kts 324°
2026-04-29 17:31 40.33585 29.51036 20370 ft 331 kts 324°
2026-04-29 17:31 40.35494 29.49393 19861 ft 327 kts 324°
2026-04-29 17:31 40.37386 29.47762 19342 ft 323 kts 324°
2026-04-29 17:31 40.39257 29.46150 18851 ft 319 kts 324°
2026-04-29 17:32 40.41103 29.44556 18355 ft 316 kts 324°
2026-04-29 17:32 40.42930 29.42978 17799 ft 313 kts 324°
2026-04-29 17:32 40.44737 29.41416 17241 ft 309 kts 324°
2026-04-29 17:32 40.46516 29.39878 16775 ft 303 kts 324°
2026-04-29 17:33 40.48263 29.38367 16254 ft 299 kts 324°
2026-04-29 17:33 40.49989 29.36872 15756 ft 295 kts 324°
2026-04-29 17:33 40.51690 29.35399 15259 ft 291 kts 324°
2026-04-29 17:33 40.53376 29.33937 14779 ft 289 kts 324°
2026-04-29 17:34 40.55046 29.32488 14304 ft 287 kts 324°
2026-04-29 17:34 40.56703 29.31050 13835 ft 285 kts 324°
2026-04-29 17:34 40.58354 29.29617 13310 ft 283 kts 324°
2026-04-29 17:34 40.59970 29.28212 12788 ft 281 kts 325°
2026-04-29 17:35 40.62668 29.25866 12091 ft 273 kts 325°
2026-04-29 17:35 40.64744 29.24060 11489 ft 267 kts 325°
2026-04-29 17:35 40.66288 29.22715 11043 ft 264 kts 325°
2026-04-29 17:36 40.67806 29.21394 10606 ft 260 kts 325°
2026-04-29 17:36 40.69308 29.20085 10189 ft 257 kts 325°
2026-04-29 17:36 40.70782 29.18798 9785 ft 252 kts 325°
2026-04-29 17:36 40.72235 29.17529 9357 ft 249 kts 325°
2026-04-29 17:37 40.73668 29.16278 8935 ft 246 kts 326°
2026-04-29 17:37 40.75087 29.15037 8536 ft 243 kts 326°
2026-04-29 17:37 40.76492 29.13811 8124 ft 241 kts 326°
2026-04-29 17:37 40.77883 29.12594 7714 ft 239 kts 326°
2026-04-29 17:38 40.79261 29.11387 7316 ft 237 kts 326°
2026-04-29 17:38 40.80616 29.10199 6943 ft 236 kts 326°
2026-04-29 17:38 40.81989 29.08996 6542 ft 238 kts 326°
2026-04-29 17:38 40.83377 29.07780 6157 ft 239 kts 327°
2026-04-29 17:39 40.84748 29.06578 5724 ft 234 kts 327°
2026-04-29 17:39 40.86091 29.05399 5323 ft 229 kts 328°
2026-04-29 17:39 40.87409 29.04243 4886 ft 225 kts 328°
2026-04-29 17:39 40.88702 29.03107 4444 ft 222 kts 329°
2026-04-29 17:40 40.89985 29.01980 4059 ft 220 kts 329°
2026-04-29 17:40 40.91080 29.00605 4007 ft 223 kts 297°
2026-04-29 17:40 40.91413 28.98566 4036 ft 233 kts 274°
2026-04-29 17:40 40.91535 28.96424 4026 ft 239 kts 278°
2026-04-29 17:41 40.91729 28.94255 3989 ft 234 kts 279°
2026-04-29 17:41 40.91918 28.92156 3982 ft 227 kts 278°
2026-04-29 17:41 40.92100 28.90097 3989 ft 224 kts 278°
2026-04-29 17:41 40.92281 28.88056 3988 ft 224 kts 278°
2026-04-29 17:42 40.92460 28.86010 3992 ft 224 kts 278°
2026-04-29 17:42 40.92638 28.83965 4002 ft 224 kts 278°
2026-04-29 17:42 40.92817 28.81907 4012 ft 226 kts 278°
2026-04-29 17:42 40.93153 28.79902 3964 ft 219 kts 304°
2026-04-29 17:43 40.94213 28.78601 4015 ft 210 kts 335°
2026-04-29 17:43 40.95515 28.77671 4074 ft 214 kts 333°
2026-04-29 17:43 40.96803 28.76685 4064 ft 211 kts 339°
2026-04-29 17:43 40.98188 28.76304 4013 ft 199 kts
2026-04-29 17:44 40.99536 28.76240 4021 ft 189 kts
2026-04-29 17:44 41.00818 28.76175 3988 ft 178 kts
2026-04-29 17:44 41.02033 28.76135 3987 ft 174 kts
2026-04-29 17:44 41.03248 28.76106 3995 ft 175 kts
2026-04-29 17:45 41.04435 28.76081 3972 ft 165 kts
2026-04-29 17:45 41.05563 28.76062 3998 ft 159 kts
2026-04-29 17:45 41.06638 28.76039 4001 ft 154 kts
2026-04-29 17:45 41.07712 28.76021 3925 ft 157 kts
2026-04-29 17:46 41.08807 28.76002 3708 ft 156 kts
2026-04-29 17:46 41.09877 28.75979 3511 ft 152 kts
2026-04-29 17:46 41.10933 28.75957 3321 ft 152 kts
2026-04-29 17:46 41.11990 28.75939 3113 ft 152 kts
2026-04-29 17:47 41.13047 28.75918 2928 ft 152 kts
2026-04-29 17:47 41.14104 28.75900 2725 ft 152 kts
2026-04-29 17:47 41.15158 28.75881 2523 ft 151 kts
2026-04-29 17:47 41.16203 28.75853 2305 ft 150 kts
2026-04-29 17:48 41.17252 28.75838 2145 ft 152 kts
2026-04-29 17:48 41.18320 28.75824 1900 ft 152 kts
2026-04-29 17:48 41.19355 28.75802 1693 ft 146 kts
2026-04-29 17:48 41.20371 28.75783 1486 ft 148 kts
2026-04-29 17:49 41.21417 28.75762 1298 ft 152 kts
2026-04-29 17:49 41.22475 28.75742 1089 ft 152 kts
2026-04-29 17:49 41.23515 28.75718 921 ft 146 kts
2026-04-29 17:49 41.24531 28.75688 682 ft 148 kts
2026-04-29 17:50 41.25566 28.75661 481 ft 148 kts
2026-04-29 17:50 41.26584 28.75660 333 ft 147 kts